Regional Weather Roundup
Issued by NWS

Home | Current Version | Previous Version | Graphics & Text | Print | Product List | Glossary On
Versions: 1 2 3 4 5 6 7 8 9 10 11 12 13 14 15 16 17 18 19 20 21 22 23 24 25 26 27 28 29 30 31 32 33 34 35 36 37 38 39 40 41 42 43 44 45 46 47 48 49 50
851
ASUS43 KMKX 240221
RWRWI

WISCONSIN REGIONAL WEATHER ROUNDUP
NATIONAL WEATHER SERVICE MILWAUKEE/SULLIVAN WI
900 PM CDT SAT JUL 23 2016

NOTE: "FAIR" INDICATES FEW OR NO CLOUDS BELOW 12,000 FEET WITH NO
SIGNIFICANT WEATHER AND/OR OBSTRUCTIONS TO VISIBILITY.

WIZ001-002-006>008-014>016-023>028-240300-
NORTHWEST WISCONSIN

CITY           SKY/WX    TMP DP  RH WIND       PRES   REMARKS
SUPERIOR ARPT  CLOUDY    63  61  94 NE6       29.83S
ASHLAND        CLOUDY    70  66  87 CALM      29.84F
HAYWARD        CLOUDY    70  66  87 CALM      29.84F
SIREN          CLOUDY    73  70  88 S6        29.82R
CUMBERLAND     CLOUDY    68  66  94 SE6       29.83F
RICE LAKE      CLOUDY    70  67  92 SE8       29.85F
CHETEK         CLOUDY    70  69  98 SE7       29.84S
LADYSMITH      CLOUDY    70  68  92 SE3       29.88S
EAU CLAIRE     CLOUDY    71  69  93 E8        29.82F
MENOMONIE      CLEAR     71  71  99 E5        29.82F
NEW RICHMOND   CLEAR     71  70  96 E3        29.82R
OSCEOLA        MOCLDY    71  71 100 E3        29.83S
$$

WIZ003>005-009-010-017-018-240300-
NORTH CENTRAL WISCONSIN

CITY           SKY/WX    TMP DP  RH WIND       PRES   REMARKS
MANITOWISH WTR CLOUDY    71  71 100 S3        29.89F
ARBOR VITAE    CLOUDY    72  69  91 S5        29.90S
WOODRUFF       CLOUDY    72  69  91 S5        29.90S
RHINELANDER    LGT RAIN  72  68  87 S6        29.91F
EAGLE RIVER    CLOUDY    71  65  81 CALM      29.91S
LAND O LAKES   CLOUDY    72  67  85 CALM      29.91F
PHILLIPS       CLOUDY    69  69  98 SE8       29.88F
TOMAHAWK       CLOUDY    69  66  92 CALM      29.90F
MEDFORD        RAIN      67  67 100 E3        29.88S
MERRILL        CLOUDY    70  69  95 CALM      29.89F
$$

WIZ029-030-035-036-043>047-240300-
CENTRAL WISCONSIN

CITY           SKY/WX    TMP DP  RH WIND       PRES   REMARKS
WAUSAU         CLOUDY    71  66  84 SE5       29.87F
MOSINEE        CLOUDY    70  68  94 E5        29.89F
MARSHFIELD     CLOUDY    70  66  87 SE6       29.87S
STEVENS POINT  CLOUDY    69  68  97 SE3       29.89S
WAUPACA        CLOUDY    75  74  99 S6        29.89S
WAUTOMA        CLOUDY    72  70  93 S9        29.89F
WISC RAPIDS    CLOUDY    71  66  84 S3        29.88S
CAMP DOUGLAS   CLOUDY    71  70  95 SE9       29.85F
$$

WIZ011>013-019>022-031-037>040-048>050-240300-
NORTHEAST WISCONSIN

CITY           SKY/WX    TMP DP  RH WIND       PRES   REMARKS
ANTIGO         CLOUDY    70  70  98 CALM      29.92S
SHAWANO        CLOUDY    77  71  83 CALM      29.89S
OCONTO         CLOUDY    75  73  93 SE3       29.88S
STURGEON BAY   LGT RAIN  73  65  75 SE9       29.91F
GREEN BAY      CLOUDY    76  76 100 S5        29.89R
MANITOWOC      LGT RAIN  72  69  90 MISG      29.92R FOG
APPLETON       DRIZZLE   73  72  94 SW6       29.90R
CLINTONVILLE   CLOUDY    73  72  94 S5        29.89R
OSHKOSH        CLOUDY    73  70  90 S8        29.90R
$$

WIZ032>034-041-042-053>061-240300-
SOUTHWEST WISCONSIN

CITY           SKY/WX    TMP DP  RH WIND       PRES   REMARKS
LA CROSSE      PTCLDY    74  68  81 S13       29.81F
SPARTA         CLOUDY    72  68  88 SE12      29.84F
VIROQUA        MOCLDY    69  69 100 SE10      29.87S
BOSCOBEL       CLOUDY    72  70  93 CALM      29.86F
PRAIRIE DU CHI CLOUDY    70  69  96 SE3       29.84R
PLATTEVILLE    CLOUDY    71  71 100 SE8       29.88S
$$

WIZ056-057-062-063-064-067-068-240300-
SOUTH CENTRAL WISCONSIN

CITY           SKY/WX    TMP DP  RH WIND       PRES   REMARKS
REEDSBURG      CLOUDY    71  71 100 SE3       29.87F
BARABOO/DELLS  RAIN      72  69  91 SE7       29.89S
LONE ROCK      CLOUDY    72  71  97 E6        29.88F
MINERAL POINT  CLOUDY    72  70  94 E8        29.89S
MADISON        LGT RAIN  72  70  93 SE6       29.91F
MIDDLETON      CLOUDY    73  73 100 E6        29.91S
WATERTOWN      RAIN      70  70 100 SE5       29.93F
MONROE         LGT RAIN  70  68  94 E5        29.92F
JANESVILLE     TSTM      72  72 100 SE10      29.92F
$$

WIZ051-052-058>065-066-070>072-240300-
SOUTHEAST WISCONSIN

CITY           SKY/WX    TMP DP  RH WIND       PRES   REMARKS
MILWAUKEE      TSTM      75  71  87 W8        29.97R
WAUKESHA       RAIN      70  68  94 S9        29.98R
MILWAUKEE/TIMM MOCLDY    73  70  88 SW8       29.97
RACINE         LGT RAIN  73  68  84 W13G21    30.01R
BURLINGTON     LGT RAIN  71  70  97 E5        29.96F
KENOSHA        RAIN      72  69  90 SW3       29.99R FOG
FOND DU LAC    LGT RAIN  74  71  91 S8        29.92S
SHEBOYGAN      LGT RAIN  76  73  91 S8        29.93S
WEST BEND      RAIN      72  70  94 CALM      29.95R
JUNEAU         LGT RAIN  71  69  95 SE8       29.95F
$$

LSZ147-162-240300-
LAKE SUPERIOR

STATION/POSITION TIME  TEMP    WIND        PRES    WAVE
                       AIR SEA DIR/SP/G            HT/PER
                 (UTC) (F)     (DEG/KT/KT) (MB)    (FT/S)
W MID LAKE BUOY  0150   62 57   90/ 12/ 14 1009.5S   2/ 4
DEVILS ISLAND    0200   62      20/  5/  6 1010.3F
PORT WING        0140   62      30/ 11/ 15 1010.2F
SAXON HARBOR     0100   70     360/  2/  2 1010.2F
$$

LMZ867-665-643>646-240300-
LAKE MICHIGAN

STATION/POSITION TIME  TEMP    WIND        PRES    WAVE
                       AIR SEA DIR/SP/G            HT/PER
                 (UTC) (F)     (DEG/KT/KT) (MB)    (FT/S)
CHAMBERS ISLAND  0140   77     120/  6/  8 1012.2F
S GREEN BAY BUOY 0100   77 75  150/ 10/ 12   N/A
N MID LAKE BUOY  0150   73 73  120/  6/  6 1012.0F   0
NORTHPORT PIER   0100   74     130/  5/  6 1012.5F
KEWAUNEE LAKESHO 0100   71                   N/A
SHEBOYGAN LAKESH 0200   75     180/  9/ 10 1013.1R
PORT WASHINGTON  0100   75     180/  4/  7 1014.2R
MILWAUKEE LAKESH 0210   73     200/  8/ 11   N/A
S MID LAKE BUOY  0150   76 75  120/ 12/ 14 1012.0F   0
KENOSHA   LAKESH 0200   73     270/ 11/ 28 1015.2R
$$

TC  - TEMPERATURE IN CELSIUS
VSB - VISIBILITY IN STATUTE MILES
WCI - WIND CHILL INDEX
HX  - HEAT INDEX





USA.gov is the U.S. government's official web portal to all federal, state and local government web resources and services.